Fitchburg, MA

1:19 AM EST on November 22, 2017 (GMT -0500)
Fitchburg Municipal

Weather History for KFIT - May, 2013

Change the Weather History Date:

Sunday, May 12, 2013

  Actual Average (KORH) Record (KORH)
Temperature  
Mean Temperature 60 °F -  
Max Temperature 71 °F 66 °F 88 °F (1959)
Min Temperature 48 °F 44 °F 29 °F (1907)
Degree Days  
Heating Degree Days 5    
Growing Degree Days 10 (Base 50)    
Moisture  
Dew Point 48 °F    
Average Humidity 67    
Maximum Humidity 96    
Minimum Humidity 33    
Precipitation  
Precipitation 0.01 in - - ()
Sea Level Pressure  
Sea Level Pressure 29.67 in    
Wind  
Wind Speed 5 mph (WSW)    
Max Wind Speed 22 mph    
Max Gust Speed 29 mph    
Visibility 9 miles    
Events Rain    
Averages and records for this station are not official NWS values.
T = Trace of Precipitation, MM = Missing Value Source: NWS Daily Summary

Daily Weather History Graph

Daily Weather History Graph

Search for Another Location

Airport or City:

Trip Planner

Search our weather history database for the weather conditions in past years. The results will help you decide how hot, cold, wet, or windy it might be!

Date:

Astronomy

May. 12, 2013 Rise Set
Actual Time 5:28 AM EDT 7:59 PM EDT
Civil Twilight 4:56 AM EDT 8:31 PM EDT
Nautical Twilight 4:16 AM EDT 9:11 PM EDT
Astronomical Twilight 3:31 AM EDT 9:56 PM EDT
Moon 7:19 AM EDT (5/12) 10:24 PM EDT (5/12)
Length of Visible Light 15h 35m
Length of Day
14h 31m
Waxing Crescent, 6% of the Moon is Illuminated
May 12
Waxing Crescent
May 18
First Quarter
May 25
Full
May 31
Last Quarter
Jun 8
New

Hourly Weather History & Observations

Time (EDT) Temp. Dew Point Humidity Pressure Visibility Wind Dir Wind Speed Gust Speed Precip Events Conditions
12:18 AM 62.6 °F 60.8 °F 94% 29.69 in 4.0 mi Calm Calm - N/A   Overcast
12:44 AM 62.6 °F 60.8 °F 94% 29.69 in 7.0 mi SSE 4.6 mph - N/A   Overcast
12:52 AM 62.1 °F 61.0 °F 96% 29.69 in 7.0 mi SSE 3.5 mph - N/A   Mostly Cloudy
1:24 AM 62.6 °F 60.8 °F 94% 29.68 in 8.0 mi Calm Calm - N/A   Overcast
1:52 AM 62.1 °F 61.0 °F 96% 29.68 in 6.0 mi South 3.5 mph - N/A   Overcast
2:52 AM 62.1 °F 60.1 °F 93% 29.66 in 7.0 mi South 5.8 mph - N/A   Overcast
3:20 AM 62.6 °F 59.0 °F 88% 29.66 in 10.0 mi South 5.8 mph - N/A   Mostly Cloudy
3:47 AM 62.6 °F 59.0 °F 88% 29.64 in 10.0 mi SSE 4.6 mph - N/A   Mostly Cloudy
3:52 AM 62.1 °F 59.0 °F 90% 29.64 in 10.0 mi SSE 4.6 mph - N/A   Mostly Cloudy
4:52 AM 62.1 °F 59.0 °F 90% 29.65 in 10.0 mi Calm Calm - N/A   Overcast
5:52 AM 60.1 °F 55.0 °F 83% 29.65 in 10.0 mi West 3.5 mph - 0.00 in   Overcast
6:52 AM 60.1 °F 54.0 °F 80% 29.65 in 10.0 mi Calm Calm - N/A   Overcast
7:52 AM 59.0 °F 54.0 °F 83% 29.64 in 9.0 mi NW 4.6 mph - 0.01 in Rain Light Rain
8:09 AM 60.8 °F 55.4 °F 82% 29.65 in 10.0 mi Calm Calm - 0.00 in   Overcast
8:52 AM 60.1 °F 54.0 °F 80% 29.64 in 10.0 mi WNW 3.5 mph - 0.00 in   Overcast
9:52 AM 60.1 °F 53.1 °F 78% 29.64 in 10.0 mi WNW 6.9 mph - 0.00 in   Overcast
10:52 AM 63.0 °F 51.1 °F 65% 29.63 in 10.0 mi NW 6.9 mph - 0.00 in   Overcast
11:52 AM 64.9 °F 46.0 °F 50% 29.62 in 10.0 mi West 11.5 mph - N/A   Overcast
12:52 PM 68.0 °F 46.9 °F 47% 29.61 in 10.0 mi Variable 6.9 mph 17.3 mph N/A   Mostly Cloudy
1:52 PM 69.1 °F 45.0 °F 42% 29.60 in 10.0 mi SW 13.8 mph 20.7 mph N/A   Scattered Clouds
2:52 PM 70.0 °F 44.1 °F 39% 29.59 in 10.0 mi SW 12.7 mph 21.9 mph N/A   Partly Cloudy
3:52 PM 66.9 °F 45.0 °F 45% 29.60 in 10.0 mi West 16.1 mph 23.0 mph N/A   Scattered Clouds
4:52 PM 62.1 °F 39.9 °F 44% 29.65 in 10.0 mi WNW 21.9 mph 28.8 mph N/A   Clear
5:52 PM 60.1 °F 36.0 °F 41% 29.66 in 10.0 mi WNW 17.3 mph 24.2 mph N/A   Clear
6:52 PM 59.0 °F 30.9 °F 35% 29.69 in 10.0 mi WNW 20.7 mph 27.6 mph N/A   Clear
7:52 PM 55.9 °F 27.0 °F 33% 29.73 in 10.0 mi WNW 10.4 mph 24.2 mph N/A   Clear
8:52 PM 54.0 °F 27.0 °F 35% 29.76 in 10.0 mi WNW 5.8 mph - N/A   Clear
9:52 PM 51.1 °F 28.0 °F 41% 29.78 in 10.0 mi West 4.6 mph - N/A   Clear
10:52 PM 50.0 °F 28.9 °F 44% 29.80 in 10.0 mi Variable 4.6 mph - N/A   Clear
11:52 PM 48.9 °F 28.9 °F 46% 29.83 in 10.0 mi WNW 10.4 mph - N/A   Clear